Weather in Verkhnyaya Saniba

Russia / Republic of North Ossetia — Alania     43°00′48″N   44°33′31″E
В апреле 2022 года жителям России запретили посещать сайт meteo.paraplan.net по решению Генеральной прокуратуры. Аудитория сайта уменьшилась в 10 раз. Владельцы сайта не видят смысла в поддержке погодного сервера в таких условиях. Сайт будет закрыт в октябре.
temp.,
°C
wind,
m/s
gust,
m/s
humid.,
%
clouds,
%
prec.,
mm/h
press.,
hPa
HPBL,
m
30 september, fri
fri3000:00+14ssw21660 0.0 101817
03:00+13s21630 0.0 101913
06:00+13s22580 0.0 102015
09:00+19nne11500 0.0 1019397
12:00+22nne32470 0.0 10181252
15:00+22ne324727 0.0 10181531
18:00+18ese126414 0.0 102035
21:00+16s22691 0.0 102119
1 october, sat
sat100:00+15s22600 0.0 102116
03:00+15s22552 0.0 102215
06:00+14s22550 0.0 102314
09:00+20n11460 0.0 1022430
12:00+23nne21410 0.0 10211289
15:00+23n213813 0.0 10201978
18:00+19se135171 0.1 102175
21:00+16s22590 0.1 102131
2 october, sun
sun200:00+15s22575 0.0 102016
03:00+15s22551 0.0 101917
06:00+14s22535 0.0 101819
09:00+20nne114188 0.0 1016463
12:00+23nne223799 0.0 10131061
15:00+24ne323617 0.0 10101330
18:00+18se235299 0.0 101171
21:00+17s3249100 0.0 101040
3 october, mon
mon300:00+16s3351100 0.0 100742
03:00+16s2251100 0.0 100632
06:00+16s1148100 0.0 100618
09:00+20n1144100 0.0 1006135
12:00+21nw444368 0.0 1008995
15:00+21nnw4348100 0.1 10091352
18:00+17wnw246381 0.0 1012175
21:00+16wnw356797 0.0 1014545
4 october, tue
tue400:00+13nw3492100 0.5 1015452
03:00+12wnw2392100 0.9 1017370
06:00+12nw1292100 0.4 1017289
09:00+11nnw2296100 0.9 1018351
12:00+11nw2395100 0.4 1020351
15:00+10nnw2295100 0.8 1020329
18:00+10ne1196100 4.3 1023141
21:00+9w019684 5.2 102285